EW6005 Weather Reports


Display with metric or nautical units.
time (UTC)temp
F
wind
direction
speed
MPH
gust
MPH
rain 1hr
in
rain 24hr
in
rain mn
in
humidity
%
barometer
mb
20260504050333 65 0 1.0 3.0 0.00 0.00 0.00 72 1003.7
20260504045830 65 0 1.0 3.0 0.00 0.00 0.00 71 1003.8
20260504045329 65 0 1.0 2.0 0.00 0.00 0.00 71 1003.8
20260504044827 65 0 0.0 2.0 0.00 0.00 0.00 71 1003.7
20260504044326 65 0 0.0 1.0 0.00 0.00 0.00 71 1003.8
20260504043824 65 0 1.0 2.0 0.00 0.00 0.00 70 1003.9
20260504043550 66 0 1.0 2.0 0.00 0.00 0.00 70 1004.0
20260504042820 66 0 0.0 2.0 0.00 0.00 0.00 70 1003.9
20260504042539 66 0 1.0 3.0 0.00 0.00 0.00 70 1003.9
20260504041816 66 0 1.0 3.0 0.00 0.00 0.00 69 1003.9
20260504041316 66 0 1.0 3.0 0.00 0.00 0.00 69 1003.9
20260504041307 66 0 1.0 3.0 0.00 0.00 0.00 69 1003.9
20260504040316 66 0 1.0 3.0 0.00 0.00 0.00 69 1003.9
20260504035811 66 0 1.0 4.0 0.00 0.00 0.00 68 1003.9
20260504035309 66 0 2.0 4.0 0.00 0.00 0.00 68 1004.0
20260504034810 66 0 1.0 3.0 0.00 0.00 0.00 68 1003.9
20260504034308 67 0 1.0 2.0 0.00 0.00 0.00 68 1003.8
20260504033808 67 0 0.0 1.0 0.00 0.00 0.00 68 1003.9
20260504033301 67 0 0.0 0.0 0.00 0.00 0.00 69 1003.9
20260504032757 67 0 0.0 0.0 0.00 0.00 0.00 69 1003.8
20260504032258 67 0 0.0 0.0 0.00 0.00 0.00 68 1003.9
20260504032022 67 0 0.0 2.0 0.00 0.00 0.00 67 1003.8
20260504031255 67 0 1.0 3.0 0.00 0.00 0.00 67 1003.8
20260504030755 67 0 1.0 3.0 0.00 0.00 0.00 67 1003.8
20260504030255 67 0 1.0 4.0 0.00 0.00 0.00 67 1003.7
20260504030020 67 0 1.0 4.0 0.00 0.00 0.00 68 1003.7
20260504025251 67 0 1.0 3.0 0.00 0.00 0.00 68 1003.7
20260504024749 67 0 1.0 2.0 0.00 0.00 0.00 68 1003.6
20260504024250 67 0 1.0 3.0 0.00 0.00 0.00 69 1003.6
20260504023746 67 0 1.0 3.0 0.00 0.00 0.00 69 1003.5
20260504023243 66 0 0.0 2.0 0.00 0.00 0.00 69 1003.5
20260504022744 67 0 0.0 0.0 0.00 0.00 0.00 70 1003.4
20260504022244 67 0 0.0 0.0 0.00 0.00 0.00 69 1003.5
20260504021745 67 0 0.0 0.0 0.00 0.00 0.00 68 1003.5
20260504021241 67 0 0.0 0.0 0.00 0.00 0.00 68 1003.4
20260504020739 68 0 0.0 0.0 0.00 0.00 0.00 67 1003.3
20260504020500 68 0 0.0 0.0 0.00 0.00 0.00 66 1003.2
20260504015735 68 0 0.0 0.0 0.00 0.00 0.00 65 1003.2
20260504015237 69 0 0.0 0.0 0.00 0.00 0.00 65 1003.1
20260504015220 69 0 0.0 0.0 0.00 0.00 0.00 64 1003.0
20260504014228 69 0 0.0 0.0 0.00 0.00 0.00 64 1003.0
20260504013727 70 0 0.0 0.0 0.00 0.00 0.00 65 1003.0
20260504013227 70 0 0.0 0.0 0.00 0.00 0.00 64 1003.0
20260504012727 71 0 0.0 1.0 0.00 0.00 0.00 63 1003.0
20260504012227 71 0 0.0 1.0 0.00 0.00 0.00 62 1003.0
20260504011727 71 0 0.0 0.0 0.00 0.00 0.00 61 1002.8
20260504011228 72 0 0.0 0.0 0.00 0.00 0.00 60 1002.7
20260504010724 72 0 0.0 0.0 0.00 0.00 0.00 60 1002.7
20260504010447 73 0 0.0 0.0 0.00 0.00 0.00 59 1002.8
20260504005717 73 0 0.0 0.0 0.00 0.00 0.00 58 1002.8
20260504005215 74 0 0.0 0.0 0.00 0.00 0.00 57 1002.8
20260504004715 74 0 0.0 0.0 0.00 0.00 0.00 55 1002.9
20260504004215 75 0 0.0 0.0 0.00 0.00 0.00 54 1002.7
20260504003715 75 0 0.0 0.0 0.00 0.00 0.00 54 1002.8
20260504003215 76 0 0.0 1.0 0.00 0.00 0.00 54 1002.9
20260504002716 76 0 0.0 1.0 0.00 0.00 0.00 53 1002.9
20260504002433 76 0 0.0 0.0 0.00 0.00 0.00 53 1003.0
20260504001716 76 0 0.0 3.0 0.00 0.00 0.00 53 1003.0
20260504001211 77 0 0.0 3.0 0.00 0.00 0.00 51 1002.9
20260504000711 77 0 1.0 2.0 0.00 0.00 0.00 52 1002.9
20260504000212 77 0 1.0 2.0 0.00 0.00 0.00 51 1003.1
20260503235711 77 0 0.0 3.0 0.00 0.00 0.00 51 1003.0
20260503235212 78 0 0.0 3.0 0.00 0.00 0.00 50 1003.1
20260503234711 78 0 0.0 2.0 0.00 0.00 0.00 49 1003.1
20260503234211 78 0 0.0 2.0 0.00 0.00 0.00 49 1003.1
20260503233711 78 0 1.0 5.0 0.00 0.00 0.00 51 1003.1
20260503233658 78 0 1.0 6.0 0.00 0.00 0.00 48 1003.1
20260503232707 78 0 1.0 6.0 0.00 0.00 0.00 46 1003.1
20260503232431 79 0 1.0 5.0 0.00 0.00 0.00 50 1003.1
20260503231707 79 0 1.0 5.0 0.00 0.00 0.00 47 1003.2
20260503231430 79 0 1.0 5.0 0.00 0.00 0.00 47 1003.2
20260503230933 79 0 1.0 4.0 0.00 0.00 0.00 44 1003.2
20260503230207 79 0 2.0 5.0 0.00 0.00 0.00 46 1003.2
20260503225706 79 0 1.0 5.0 0.00 0.00 0.00 45 1003.3
20260503225207 79 0 1.0 4.0 0.00 0.00 0.00 48 1003.3
20260503224707 79 0 1.0 4.0 0.00 0.00 0.00 45 1003.4
20260503224206 79 0 1.0 3.0 0.00 0.00 0.00 46 1003.4
20260503223923 79 0 1.0 9.0 0.00 0.00 0.00 45 1003.4
20260503223207 79 0 2.0 9.0 0.00 0.00 0.00 45 1003.5
20260503222707 79 0 1.0 8.0 0.00 0.00 0.00 46 1003.6
20260503222207 79 0 0.0 2.0 0.00 0.00 0.00 48 1003.7
20260503221706 79 0 1.0 3.0 0.00 0.00 0.00 47 1003.7
20260503221206 79 0 1.0 4.0 0.00 0.00 0.00 47 1003.8
20260503220802 80 0 1.0 4.0 0.00 0.00 0.00 47 1003.9
20260503215659 79 0 1.0 5.0 0.00 0.00 0.00 46 1003.9
20260503215159 79 0 1.0 3.0 0.00 0.00 0.00 47 1003.8
20260503214659 79 0 1.0 3.0 0.00 0.00 0.00 45 1003.8
20260503214159 79 0 0.0 2.0 0.00 0.00 0.00 48 1003.9
20260503213659 79 0 0.0 3.0 0.00 0.00 0.00 50 1003.9
20260503213159 79 0 1.0 6.0 0.00 0.00 0.00 46 1004.1
20260503212659 79 0 1.0 6.0 0.00 0.00 0.00 48 1004.3
20260503212159 80 0 1.0 4.0 0.00 0.00 0.00 46 1004.5
20260503211659 80 0 1.0 4.0 0.00 0.00 0.00 47 1004.5
20260503211422 80 0 1.0 4.0 0.00 0.00 0.00 48 1004.6
20260503210658 80 117 0.0 3.0 0.00 0.00 0.00 47 1004.5
20260503210158 80 0 0.0 2.0 0.00 0.00 0.00 47 1004.6
20260503205659 80 324 1.0 5.0 0.00 0.00 0.00 49 1004.6
20260503205158 80 0 1.0 5.0 0.00 0.00 0.00 48 1004.7
20260503204658 79 0 1.0 3.0 0.00 0.00 0.00 47 1004.8
20260503204159 79 0 1.0 3.0 0.00 0.00 0.00 46 1004.9
20260503203659 79 0 0.0 2.0 0.00 0.00 0.00 49 1005.0
20260503203159 80 0 1.0 3.0 0.00 0.00 0.00 47 1005.2
20260503202657 80 157 1.0 4.0 0.00 0.00 0.00 48 1005.2
20260503202157 80 163 1.0 4.0 0.00 0.00 0.00 48 1005.4
20260503201657 80 27 0.0 2.0 0.00 0.00 0.00 52 1005.4
20260503201157 80 0 0.0 2.0 0.00 0.00 0.00 49 1005.5
20260503200656 80 11 0.0 4.0 0.00 0.00 0.00 49 1005.6
20260503200157 80 180 1.0 4.0 0.00 0.00 0.00 48 1005.7
20260503195655 80 304 1.0 5.0 0.00 0.00 0.00 47 1005.8
20260503195154 80 252 1.0 5.0 0.00 0.00 0.00 48 1005.8
20260503194653 80 167 2.0 5.0 0.00 0.00 0.00 46 1005.9
20260503194146 80 176 2.0 8.0 0.00 0.00 0.00 47 1005.9
20260503193644 81 211 2.0 8.0 0.00 0.00 0.00 45 1006.1
20260503193145 81 200 0.0 3.0 0.00 0.00 0.00 49 1006.2
20260503192644 81 103 1.0 3.0 0.00 0.00 0.00 50 1006.2
20260503192407 80 88 1.0 6.0 0.00 0.00 0.00 48 1006.3
20260503191645 80 9 1.0 7.0 0.00 0.00 0.00 47 1006.3
20260503191144 80 165 1.0 7.0 0.00 0.00 0.00 46 1006.5
20260503190643 80 174 1.0 4.0 0.00 0.00 0.00 48 1006.5
20260503190141 80 207 1.0 4.0 0.00 0.00 0.00 48 1006.6
20260503185640 80 190 1.0 4.0 0.00 0.00 0.00 49 1006.6
20260503185138 80 209 2.0 7.0 0.00 0.00 0.00 47 1006.7
20260503184633 80 194 2.0 7.0 0.00 0.00 0.00 50 1006.7
20260503184132 80 255 1.0 6.0 0.00 0.00 0.00 48 1006.7
20260503183633 80 53 2.0 6.0 0.00 0.00 0.00 52 1006.8
20260503183132 80 336 2.0 6.0 0.00 0.00 0.00 45 1006.9
20260503182632 81 182 2.0 6.0 0.00 0.00 0.00 46 1007.0
20260503182132 81 196 1.0 4.0 0.00 0.00 0.00 49 1007.0
20260503181632 81 340 1.0 3.0 0.00 0.00 0.00 53 1007.2
20260503181131 81 72 1.0 4.0 0.00 0.00 0.00 55 1007.4
20260503180629 80 126 0.0 4.0 0.00 0.00 0.00 52 1007.4
20260503180127 80 229 1.0 3.0 0.00 0.00 0.00 51 1007.5
20260503175628 80 242 1.0 3.0 0.00 0.00 0.00 53 1007.5
20260503175127 80 323 0.0 2.0 0.00 0.00 0.00 55 1007.7
20260503174624 80 229 0.0 2.0 0.00 0.00 0.00 52 1007.8
20260503174123 80 162 0.0 3.0 0.00 0.00 0.00 56 1007.9
20260503173624 80 62 1.0 3.0 0.00 0.00 0.00 53 1008.0
20260503173120 79 138 1.0 4.0 0.00 0.00 0.00 54 1008.1
20260503172620 79 290 1.0 5.0 0.00 0.00 0.00 54 1008.1
20260503172117 79 169 1.0 5.0 0.00 0.00 0.00 52 1008.2
20260503171615 79 19 1.0 6.0 0.00 0.00 0.00 56 1008.3
20260503171112 79 128 1.0 6.0 0.00 0.00 0.00 55 1008.4
20260503170610 79 145 1.0 4.0 0.00 0.00 0.00 56 1008.4
20260503170335 78 38 1.0 4.0 0.00 0.00 0.00 59 1008.4
20260503150552 71 0 1.0 8.0 0.00 0.00 0.00 75 1008.3
20260503131052 56 0 0.0 1.0 0.00 0.00 0.00 97 1007.8
20260503130552 56 0 0.0 1.0 0.00 0.00 0.00 96 1007.7
20260503110544 54 0 0.0 0.0 0.00 0.00 0.00 93 1006.8
20260503081007 56 0 0.0 0.0 0.00 0.01 0.00 92 1006.4
20260503080504 56 0 0.0 0.0 0.00 0.01 0.00 92 1006.4
20260503080229 57 0 0.0 0.0 0.00 0.01 0.00 92 1006.4
20260503072713 57 0 0.0 0.0 0.00 0.01 0.00 92 1006.4
20260503071955 57 0 0.0 0.0 0.00 0.01 0.00 92 1006.5
20260503071721 57 0 0.0 0.0 0.00 0.01 0.00 92 1006.4
20260503070951 57 0 0.0 0.0 0.00 0.01 0.00 92 1006.5
20260503070452 57 0 0.0 0.0 0.00 0.01 0.00 92 1006.6